TimePDT,TemperatureF,Dew PointF,Humidity,Sea Level PressureIn,VisibilityMPH,Wind Direction,Wind SpeedMPH,Gust SpeedMPH,PrecipitationIn,Events,Conditions,WindDirDegrees,DateUTC
12:53 AM,46.9,39.0,74,30.28,10.0,Calm,Calm,-,N/A,,Clear,0,2012-10-14 07:53:00
1:53 AM,46.0,37.9,73,30.28,10.0,Calm,Calm,-,N/A,,Clear,0,2012-10-14 08:53:00
2:53 AM,46.0,39.0,76,30.27,10.0,NE,6.9,-,N/A,,Clear,50,2012-10-14 09:53:00
3:53 AM,45.0,39.0,80,30.25,10.0,Calm,Calm,-,N/A,,Clear,0,2012-10-14 10:53:00
4:53 AM,43.0,37.9,82,30.25,10.0,Calm,Calm,-,N/A,,Clear,0,2012-10-14 11:53:00
5:53 AM,39.9,35.1,83,30.26,10.0,Calm,Calm,-,N/A,,Clear,0,2012-10-14 12:53:00
6:53 AM,39.0,33.1,79,30.28,10.0,Calm,Calm,-,N/A,,Clear,0,2012-10-14 13:53:00
7:53 AM,39.0,35.1,86,30.30,10.0,Calm,Calm,-,N/A,,Clear,0,2012-10-14 14:53:00
8:53 AM,48.0,43.0,83,30.28,10.0,Calm,Calm,-,N/A,,Clear,0,2012-10-14 15:53:00
9:53 AM,54.0,44.1,69,30.28,10.0,Calm,Calm,-,N/A,,Clear,0,2012-10-14 16:53:00
10:53 AM,60.1,45.0,57,30.27,10.0,Calm,Calm,-,N/A,,Clear,0,2012-10-14 17:53:00
11:53 AM,64.9,45.0,48,30.24,10.0,Calm,Calm,-,N/A,,Clear,0,2012-10-14 18:53:00
1:53 PM,73.0,44.1,35,30.17,10.0,Variable,3.5,-,N/A,,Clear,0,2012-10-14 20:53:00
2:53 PM,71.1,45.0,39,30.15,10.0,Calm,Calm,-,N/A,,Clear,0,2012-10-14 21:53:00
3:53 PM,72.0,45.0,38,30.14,10.0,WNW,4.6,-,N/A,,Clear,300,2012-10-14 22:53:00
4:53 PM,71.1,48.0,44,30.14,10.0,WNW,6.9,-,N/A,,Clear,300,2012-10-14 23:53:00
5:53 PM,68.0,45.0,43,30.13,10.0,WNW,3.5,-,N/A,,Clear,290,2012-10-15 00:53:00
6:53 PM,64.0,42.1,45,30.14,10.0,Calm,Calm,-,N/A,,Clear,0,2012-10-15 01:53:00
7:53 PM,61.0,41.0,48,30.15,10.0,East,6.9,-,N/A,,Clear,80,2012-10-15 02:53:00
8:53 PM,61.0,41.0,48,30.14,10.0,ESE,3.5,-,N/A,,Clear,110,2012-10-15 03:53:00
9:53 PM,59.0,42.1,53,30.14,10.0,Calm,Calm,-,N/A,,Clear,0,2012-10-15 04:53:00
10:53 PM,57.9,41.0,53,30.14,10.0,Calm,Calm,-,N/A,,Clear,0,2012-10-15 05:53:00
11:53 PM,57.9,43.0,58,30.12,10.0,Calm,Calm,-,N/A,,Overcast,0,2012-10-15 06:53:00